Location: *
(49.3500°N, 12.6000°E)
Time: 09:41:22
(UTC+00:00)

BREEZE-M DEB (TANK) - Pass Details

Date: 18 October 2019
Orbit: 327 x 16604 km, 49.4° (Epoch: 19 November)

Event Time Altitude Azimuth Distance (km) Brightness Sun altitude
Rises 18:12:31 0° 236° (SW) 7,202 8.7 -20.0°
Reaches altitude 10° 18:19:16 10° 233° (SW) 4,335 7.4 -21.1°
Maximum altitude 18:27:25 48° 162° (SSE) 922 3.2 -22.4°
Enters shadow 18:27:36 48° 153° (SSE) 902 3.1 -22.4°
